Location: Carson
(33.8314°N, 118.2820°W)
Time: 22:38:46
(UTC+00:00)

SWAS - Pass Details

Date: 23 November 2020
Orbit: 580 x 591 km, 69.9° (Epoch: 20 January)

Event Time Altitude Azimuth Distance (km) Brightness Sun altitude
Exits shadow 13:40:31 - 334° (NNW) 2,272 7.1 -11.1°
Reaches altitude 10° 13:41:26 10° 334° (NNW) 1,902 6.7 -10.9°
Maximum altitude 13:45:40 72° 250° (WSW) 614 4.4 -10.1°
Drops below altitude 10° 13:49:54 10° 166° (SSE) 1,896 7.5 -9.2°
Sets 13:52:08 0° 164° (SSE) 2,794 8.5 -8.8°
